When you browse on this site, cookies collect data to enhance your experience and personalize the content and advertising you see.
Visit our Privacy Policy to learn more. By continuing to use the site, you agree to this use of cookies and data.
EN

Hourly Weather Shusha

Today, 5 July, Sunday

Time Temperature Precipitation Wind Pressure Humidity
00:00 +19°C° 0 mm 1 mps 659 mmHg 50%
01:00 +18°C° 0 mm 2 mps 659 mmHg 50%
02:00 +17°C° 0 mm 2 mps 659 mmHg 49%
03:00 +17°C° 0 mm 2 mps 658 mmHg 50%
04:00 +19°C° 0 mm 1 mps 658 mmHg 50%
05:00 +19°C° 0 mm 1 mps 659 mmHg 51%
06:00 +20°C° 0 mm 1 mps 659 mmHg 51%
07:00 +22°C° 0 mm 1 mps 659 mmHg 45%
08:00 +23°C° 0 mm 2 mps 660 mmHg 40%
09:00 +24°C° 0 mm 2 mps 660 mmHg 33%
10:00 +25°C° 0 mm 2 mps 660 mmHg 33%
11:00 +26°C° 0 mm 2 mps 660 mmHg 33%
12:00 +27°C° 0 mm 2 mps 660 mmHg 33%
13:00 +27°C° 0 mm 3 mps 659 mmHg 33%
14:00 +27°C° 0 mm 3 mps 659 mmHg 33%
15:00 +28°C° 0 mm 3 mps 659 mmHg 33%
16:00 +27°C° 0 mm 3 mps 659 mmHg 35%
17:00 +27°C° 0 mm 3 mps 658 mmHg 37%
18:00 +26°C° 0 mm 2 mps 658 mmHg 39%
19:00 +24°C° 0 mm 2 mps 658 mmHg 42%
20:00 +21°C° 0 mm 2 mps 658 mmHg 45%
21:00 +20°C° 0 mm 1 mps 658 mmHg 48%
22:00 +19°C° 0 mm 2 mps 658 mmHg 47%
23:00 +19°C° 0 mm 2 mps 657 mmHg 45%

Tomorrow, 6 July, Monday

Time Temperature Precipitation Wind Pressure Humidity
00:00 +18°C° 0 mm 2 mps 657 mmHg 44%
01:00 +18°C° 0 mm 2 mps 657 mmHg 43%
02:00 +18°C° 0 mm 2 mps 657 mmHg 42%
03:00 +18°C° 0 mm 1 mps 657 mmHg 40%
04:00 +19°C° 0 mm 1 mps 657 mmHg 41%
05:00 +20°C° 0 mm 1 mps 658 mmHg 42%
06:00 +20°C° 0 mm 1 mps 658 mmHg 43%
07:00 +22°C° 0 mm 1 mps 658 mmHg 37%
08:00 +24°C° 0 mm 1 mps 659 mmHg 31%
09:00 +26°C° 0 mm 1 mps 659 mmHg 25%
10:00 +27°C° 0 mm 2 mps 659 mmHg 25%
11:00 +27°C° 0 mm 2 mps 659 mmHg 25%
12:00 +28°C° 0 mm 3 mps 659 mmHg 25%
13:00 +29°C° 0 mm 3 mps 659 mmHg 25%
14:00 +29°C° 0 mm 3 mps 659 mmHg 26%
15:00 +29°C° 0 mm 3 mps 658 mmHg 26%
16:00 +29°C° 0 mm 3 mps 658 mmHg 29%
17:00 +28°C° 0 mm 2 mps 658 mmHg 31%
18:00 +28°C° 0 mm 2 mps 658 mmHg 34%
19:00 +26°C° 0 mm 2 mps 658 mmHg 35%
20:00 +24°C° 0 mm 2 mps 658 mmHg 35%
21:00 +21°C° 0 mm 2 mps 658 mmHg 36%
22:00 +20°C° 0 mm 2 mps 657 mmHg 35%
23:00 +20°C° 0 mm 2 mps 657 mmHg 35%

Day after tomorrow, 7 July, Tuesday

Time Temperature Precipitation Wind Pressure Humidity
00:00 +20°C° 0 mm 2 mps 657 mmHg 34%
01:00 +19°C° 0 mm 2 mps 657 mmHg 34%
02:00 +19°C° 0 mm 2 mps 657 mmHg 34%
03:00 +19°C° 0 mm 2 mps 657 mmHg 34%
04:00 +20°C° 0 mm 2 mps 657 mmHg 36%
05:00 +20°C° 0 mm 2 mps 657 mmHg 38%
06:00 +21°C° 0 mm 2 mps 657 mmHg 40%
07:00 +24°C° 0 mm 2 mps 658 mmHg 35%
08:00 +25°C° 0 mm 2 mps 658 mmHg 30%
09:00 +27°C° 0 mm 2 mps 659 mmHg 25%
10:00 +28°C° 0 mm 2 mps 659 mmHg 25%
11:00 +29°C° 0 mm 2 mps 659 mmHg 24%
12:00 +30°C° 0 mm 3 mps 658 mmHg 24%
13:00 +30°C° 0 mm 3 mps 658 mmHg 24%
14:00 +30°C° 0 mm 2 mps 658 mmHg 24%
15:00 +31°C° 0 mm 2 mps 658 mmHg 24%
16:00 +30°C° 0 mm 2 mps 657 mmHg 27%
17:00 +29°C° 0 mm 2 mps 657 mmHg 30%
18:00 +29°C° 0 mm 2 mps 657 mmHg 32%
19:00 +26°C° 0 mm 2 mps 657 mmHg 35%
20:00 +24°C° 0 mm 2 mps 657 mmHg 38%
21:00 +22°C° 0 mm 1 mps 657 mmHg 41%
22:00 +21°C° 0 mm 2 mps 656 mmHg 41%
23:00 +20°C° 0 mm 2 mps 656 mmHg 41%

8 July, Wednesday

Time Temperature Precipitation Wind Pressure Humidity
00:00 +20°C° 0 mm 2 mps 656 mmHg 41%
01:00 +20°C° 0 mm 2 mps 656 mmHg 41%
02:00 +20°C° 0 mm 2 mps 656 mmHg 41%
03:00 +19°C° 0 mm 2 mps 656 mmHg 42%
04:00 +20°C° 0 mm 2 mps 656 mmHg 43%
05:00 +20°C° 0 mm 2 mps 656 mmHg 45%
06:00 +21°C° 0 mm 2 mps 657 mmHg 47%
07:00 +24°C° 0 mm 2 mps 657 mmHg 42%
08:00 +25°C° 0 mm 2 mps 658 mmHg 38%
09:00 +27°C° 0 mm 2 mps 658 mmHg 34%
10:00 +28°C° 0 mm 2 mps 658 mmHg 33%
11:00 +29°C° 0 mm 2 mps 658 mmHg 31%
12:00 +30°C° 0 mm 3 mps 658 mmHg 30%
13:00 +31°C° 0 mm 3 mps 658 mmHg 30%
14:00 +31°C° 0 mm 3 mps 658 mmHg 31%
15:00 +33°C° 0 mm 3 mps 657 mmHg 31%
16:00 +31°C° 0 mm 2 mps 657 mmHg 34%
17:00 +30°C° 0 mm 2 mps 657 mmHg 36%
18:00 +29°C° 0 mm 1 mps 657 mmHg 39%
19:00 +28°C° 0 mm 1 mps 657 mmHg 42%
20:00 +26°C° 0 mm 1 mps 657 mmHg 44%
21:00 +24°C° 0 mm 1 mps 657 mmHg 47%
22:00 +24°C° 0 mm 1 mps 656 mmHg 48%
23:00 +24°C° 0 mm 1 mps 656 mmHg 49%

9 July, Thursday

Time Temperature Precipitation Wind Pressure Humidity
00:00 +23°C° 0 mm 2 mps 656 mmHg 50%
01:00 +23°C° 0 mm 2 mps 656 mmHg 50%
02:00 +23°C° 0 mm 2 mps 656 mmHg 50%
03:00 +22°C° 0 mm 1 mps 656 mmHg 50%
04:00 +23°C° 0 mm 1 mps 656 mmHg 50%
05:00 +23°C° 0 mm 1 mps 656 mmHg 49%
06:00 +24°C° 0 mm 1 mps 657 mmHg 49%
07:00 +25°C° 0 mm 1 mps 657 mmHg 44%
08:00 +27°C° 0 mm 1 mps 657 mmHg 39%
09:00 +29°C° 0 mm 1 mps 658 mmHg 34%
10:00 +30°C° 0 mm 2 mps 658 mmHg 32%
11:00 +31°C° 0 mm 2 mps 658 mmHg 31%
12:00 +33°C° 0 mm 3 mps 658 mmHg 29%
13:00 +33°C° 0.1 mm 3 mps 658 mmHg 31%
14:00 +32°C° 0.1 mm 2 mps 657 mmHg 32%
15:00 +32°C° 0.1 mm 2 mps 657 mmHg 33%
16:00 +31°C° 0.1 mm 2 mps 657 mmHg 37%
17:00 +29°C° 0.1 mm 3 mps 656 mmHg 42%
18:00 +28°C° 0.1 mm 3 mps 656 mmHg 47%
19:00 +27°C° 0 mm 3 mps 656 mmHg 48%
20:00 +25°C° 0 mm 2 mps 657 mmHg 49%
21:00 +24°C° 0 mm 2 mps 657 mmHg 51%
22:00 +24°C° 0 mm 2 mps 657 mmHg 50%
23:00 +24°C° 0 mm 2 mps 657 mmHg 49%

10 July, Friday

Time Temperature Precipitation Wind Pressure Humidity
00:00 +23°C° 0 mm 1 mps 657 mmHg 48%
01:00 +23°C° 0 mm 1 mps 657 mmHg 51%
02:00 +21°C° 0 mm 2 mps 657 mmHg 54%
03:00 +20°C° 0 mm 2 mps 657 mmHg 57%
04:00 +22°C° 0 mm 1 mps 657 mmHg 57%
05:00 +23°C° 0 mm 1 mps 657 mmHg 57%
06:00 +24°C° 0 mm 1 mps 658 mmHg 57%
07:00 +25°C° 0 mm 1 mps 658 mmHg 51%
08:00 +26°C° 0 mm 2 mps 658 mmHg 45%
09:00 +28°C° 0 mm 2 mps 659 mmHg 40%
10:00 +29°C° 0.1 mm 2 mps 659 mmHg 37%
11:00 +30°C° 0.1 mm 3 mps 659 mmHg 34%
12:00 +31°C° 0.1 mm 3 mps 659 mmHg 31%
13:00 +31°C° 0 mm 3 mps 659 mmHg 30%
14:00 +31°C° 0 mm 3 mps 658 mmHg 30%
15:00 +33°C° 0 mm 3 mps 658 mmHg 29%
16:00 +30°C° 0.3 mm 3 mps 658 mmHg 37%
17:00 +28°C° 0.3 mm 4 mps 657 mmHg 44%
18:00 +26°C° 0.3 mm 4 mps 657 mmHg 52%
19:00 +25°C° 0.1 mm 3 mps 657 mmHg 55%
20:00 +22°C° 0.1 mm 3 mps 657 mmHg 57%
21:00 +21°C° 0.1 mm 2 mps 658 mmHg 60%
22:00 +21°C° 0 mm 2 mps 657 mmHg 59%
23:00 +21°C° 0 mm 2 mps 657 mmHg 58%
Show more